Location: Barcelona
(41.3830°N, 2.1830°E)
Time: 22:53:40
(UTC+02:00)

ISS - Pass Details

Date: 22 July 2017
Orbit: 400 x 408 km, 51.6° (Epoch: 24 July)

Event Time Altitude Azimuth Distance (km) Brightness Sun altitude
Rises 05:55:14 0° 304° (NW) 2,316 -0.2 -7.5°
Reaches altitude 10° 05:57:19 10° 302° (WNW) 1,456 -1.2 -7.1°
Maximum altitude 06:00:34 73° 218° (SW) 423 -3.9 -6.6°
Drops below altitude 10° 06:03:49 10° 133° (SE) 1,452 -0.8 -6.1°
Sets 06:05:53 0° 131° (SE) 2,309 0.2 -5.8°
